| time (UTC) | temp F | wind direction | speed knots | gust knots | rain 1hr in | rain 24hr in | rain mn in | humidity % | barometer mb |
| 20260505040506 | 58 | 182 | 0.0 | 0.0 | 0.00 | 0.00 | 0.00 | 66 | 1008.6 |
| 20260505040011 | 58 | 182 | 0.0 | 0.0 | 0.00 | 0.00 | 0.00 | 66 | 1008.5 |
| 20260505035504 | 59 | 182 | 0.0 | 0.0 | 0.00 | 0.00 | 0.00 | 66 | 1008.6 |
| 20260505034504 | 59 | 182 | 0.0 | 0.0 | 0.00 | 0.00 | 0.00 | 65 | 1008.6 |
| 20260505034006 | 59 | 182 | 0.0 | 0.0 | 0.00 | 0.00 | 0.00 | 65 | 1008.6 |
| 20260505033505 | 59 | 182 | 0.0 | 0.0 | 0.00 | 0.00 | 0.00 | 65 | 1008.6 |
| 20260505031505 | 60 | 182 | 0.0 | 0.0 | 0.00 | 0.00 | 0.00 | 63 | 1008.4 |
| 20260505031005 | 60 | 182 | 0.0 | 0.0 | 0.00 | 0.00 | 0.00 | 63 | 1008.4 |
| 20260505030506 | 60 | 182 | 0.0 | 0.0 | 0.00 | 0.00 | 0.00 | 63 | 1008.3 |
| 20260505030011 | 61 | 182 | 0.0 | 0.0 | 0.00 | 0.00 | 0.00 | 63 | 1008.3 |
| 20260505025005 | 61 | 196 | 0.0 | 0.0 | 0.00 | 0.00 | 0.00 | 62 | 1008.5 |
| 20260505024505 | 61 | 196 | 1.7 | 5.2 | 0.00 | 0.00 | 0.00 | 62 | 1008.4 |
| 20260505024005 | 61 | 198 | 0.0 | 0.9 | 0.00 | 0.00 | 0.00 | 62 | 1008.4 |
| 20260505023505 | 61 | 198 | 0.0 | 0.0 | 0.00 | 0.00 | 0.00 | 62 | 1008.4 |
| 20260505023011 | 61 | 198 | 0.0 | 0.9 | 0.00 | 0.00 | 0.00 | 62 | 1008.3 |
| 20260505021504 | 61 | 198 | 0.0 | 0.0 | 0.00 | 0.00 | 0.00 | 62 | 1008.4 |
| 20260505020505 | 61 | 198 | 0.0 | 0.0 | 0.00 | 0.00 | 0.00 | 62 | 1008.4 |
| 20260505020011 | 62 | 198 | 0.0 | 0.9 | 0.00 | 0.00 | 0.00 | 61 | 1008.3 |
| 20260505015005 | 62 | 198 | 0.9 | 2.6 | 0.00 | 0.00 | 0.00 | 61 | 1008.4 |
| 20260505014005 | 62 | 185 | 0.9 | 1.7 | 0.00 | 0.00 | 0.00 | 61 | 1008.2 |
| 20260505013505 | 63 | 184 | 0.0 | 0.9 | 0.00 | 0.00 | 0.00 | 59 | 1008.0 |
| 20260505013011 | 63 | 184 | 0.0 | 0.9 | 0.00 | 0.00 | 0.00 | 59 | 1008.0 |
| 20260505012504 | 63 | 183 | 0.0 | 0.9 | 0.00 | 0.00 | 0.00 | 59 | 1008.1 |
| 20260505012005 | 63 | 185 | 0.9 | 1.7 | 0.00 | 0.00 | 0.00 | 58 | 1008.0 |
| 20260505011511 | 64 | 196 | 0.9 | 4.3 | 0.00 | 0.00 | 0.00 | 57 | 1008.1 |
| 20260505011005 | 64 | 194 | 0.0 | 1.7 | 0.00 | 0.00 | 0.00 | 56 | 1007.9 |
| 20260505010505 | 64 | 188 | 0.0 | 1.7 | 0.00 | 0.00 | 0.00 | 56 | 1008.0 |
| 20260505010010 | 64 | 183 | 0.9 | 2.6 | 0.00 | 0.00 | 0.00 | 56 | 1008.0 |
| 20260505005505 | 64 | 184 | 0.0 | 1.7 | 0.00 | 0.00 | 0.00 | 55 | 1007.9 |
| 20260505005005 | 65 | 184 | 0.0 | 0.9 | 0.00 | 0.00 | 0.00 | 54 | 1007.9 |
| 20260505004506 | 65 | 184 | 0.0 | 0.9 | 0.00 | 0.00 | 0.00 | 54 | 1007.9 |
| 20260505004006 | 66 | 184 | 0.9 | 1.7 | 0.00 | 0.00 | 0.00 | 54 | 1007.7 |
| 20260505003506 | 66 | 184 | 0.0 | 1.7 | 0.00 | 0.00 | 0.00 | 53 | 1007.7 |
| 20260505003010 | 67 | 131 | 0.9 | 2.6 | 0.00 | 0.00 | 0.00 | 51 | 1007.8 |
| 20260505002505 | 67 | 120 | 0.0 | 2.6 | 0.00 | 0.00 | 0.00 | 50 | 1007.9 |
| 20260505001505 | 67 | 154 | 0.9 | 4.3 | 0.00 | 0.00 | 0.00 | 50 | 1007.7 |
| 20260505000505 | 68 | 126 | 0.0 | 0.9 | 0.00 | 0.00 | 0.00 | 48 | 1007.6 |
| 20260504235505 | 69 | 120 | 0.0 | 0.9 | 0.00 | 0.00 | 0.00 | 46 | 1007.5 |
| 20260504235005 | 70 | 120 | 0.0 | 1.7 | 0.00 | 0.00 | 0.00 | 45 | 1007.6 |
| 20260504234505 | 70 | 121 | 0.0 | 0.0 | 0.00 | 0.00 | 0.00 | 44 | 1007.5 |
| 20260504234005 | 71 | 121 | 0.9 | 2.6 | 0.00 | 0.00 | 0.00 | 43 | 1007.5 |
| 20260504233504 | 71 | 137 | 1.7 | 4.3 | 0.00 | 0.00 | 0.00 | 42 | 1007.5 |
| 20260504233011 | 71 | 158 | 0.9 | 7.0 | 0.00 | 0.00 | 0.00 | 42 | 1007.6 |
| 20260504232505 | 72 | 158 | 1.7 | 7.0 | 0.00 | 0.00 | 0.00 | 42 | 1007.5 |
| 20260504232005 | 72 | 105 | 2.6 | 7.8 | 0.00 | 0.00 | 0.00 | 41 | 1007.6 |
| 20260504231005 | 73 | 147 | 4.3 | 7.0 | 0.00 | 0.00 | 0.00 | 40 | 1007.6 |
| 20260504230011 | 74 | 130 | 7.0 | 12.2 | 0.00 | 0.00 | 0.00 | 40 | 1007.6 |
| 20260504225506 | 74 | 118 | 0.9 | 10.4 | 0.00 | 0.00 | 0.00 | 41 | 1007.6 |
| 20260504225005 | 74 | 109 | 0.9 | 5.2 | 0.00 | 0.00 | 0.00 | 40 | 1007.6 |
| 20260504224504 | 75 | 131 | 0.9 | 10.4 | 0.00 | 0.00 | 0.00 | 39 | 1007.5 |
| 20260504224005 | 75 | 105 | 2.6 | 13.0 | 0.00 | 0.00 | 0.00 | 38 | 1007.5 |
| 20260504223505 | 76 | 129 | 2.6 | 11.3 | 0.00 | 0.00 | 0.00 | 37 | 1007.4 |
| 20260504223011 | 77 | 125 | 5.2 | 10.4 | 0.00 | 0.00 | 0.00 | 36 | 1007.4 |
| 20260504222505 | 77 | 124 | 5.2 | 7.8 | 0.00 | 0.00 | 0.00 | 34 | 1007.3 |
| 20260504221005 | 78 | 112 | 2.6 | 7.8 | 0.00 | 0.00 | 0.00 | 32 | 1007.3 |
| 20260504220505 | 78 | 156 | 2.6 | 11.3 | 0.00 | 0.00 | 0.00 | 31 | 1007.3 |
| 20260504220010 | 79 | 160 | 4.3 | 12.2 | 0.00 | 0.00 | 0.00 | 31 | 1007.3 |
| 20260504215005 | 79 | 153 | 4.3 | 8.7 | 0.00 | 0.00 | 0.00 | 30 | 1007.4 |
| 20260504214505 | 79 | 146 | 6.1 | 11.3 | 0.00 | 0.00 | 0.00 | 30 | 1007.4 |
| 20260504214005 | 80 | 206 | 2.6 | 12.2 | 0.00 | 0.00 | 0.00 | 30 | 1007.4 |
| 20260504213504 | 80 | 134 | 2.6 | 13.9 | 0.00 | 0.00 | 0.00 | 32 | 1007.3 |
| 20260504213009 | 80 | 116 | 1.7 | 7.8 | 0.00 | 0.00 | 0.00 | 31 | 1007.4 |
| 20260504212505 | 80 | 152 | 7.0 | 11.3 | 0.00 | 0.00 | 0.00 | 30 | 1007.5 |
| 20260504212005 | 80 | 194 | 2.6 | 5.2 | 0.00 | 0.00 | 0.00 | 30 | 1007.5 |
| 20260504211505 | 79 | 185 | 1.7 | 7.8 | 0.00 | 0.00 | 0.00 | 31 | 1007.4 |
| 20260504211005 | 79 | 204 | 5.2 | 7.8 | 0.00 | 0.00 | 0.00 | 31 | 1007.5 |
| 20260504210504 | 80 | 180 | 5.2 | 11.3 | 0.00 | 0.00 | 0.00 | 31 | 1007.4 |
| 20260504210010 | 80 | 254 | 4.3 | 10.4 | 0.00 | 0.00 | 0.00 | 30 | 1007.3 |
| 20260504205505 | 79 | 125 | 5.2 | 10.4 | 0.00 | 0.00 | 0.00 | 32 | 1007.4 |
| 20260504204506 | 79 | 212 | 4.3 | 12.2 | 0.00 | 0.00 | 0.00 | 31 | 1007.4 |
| 20260504204005 | 79 | 133 | 6.1 | 11.3 | 0.00 | 0.00 | 0.00 | 30 | 1007.5 |
| 20260504202504 | 79 | 244 | 4.3 | 11.3 | 0.00 | 0.00 | 0.00 | 31 | 1007.8 |
| 20260504201505 | 80 | 169 | 3.5 | 8.7 | 0.00 | 0.00 | 0.00 | 31 | 1007.9 |
| 20260504201006 | 79 | 144 | 4.3 | 8.7 | 0.00 | 0.00 | 0.00 | 31 | 1007.9 |
| 20260504200011 | 79 | 170 | 3.5 | 7.8 | 0.00 | 0.00 | 0.00 | 33 | 1008.0 |
| 20260504195505 | 78 | 204 | 5.2 | 11.3 | 0.00 | 0.00 | 0.00 | 32 | 1008.1 |
| 20260504195005 | 78 | 243 | 6.1 | 12.2 | 0.00 | 0.00 | 0.00 | 33 | 1008.1 |
| 20260504194504 | 78 | 187 | 7.0 | 11.3 | 0.00 | 0.00 | 0.00 | 32 | 1008.4 |
| 20260504193505 | 78 | 223 | 4.3 | 13.9 | 0.00 | 0.00 | 0.00 | 33 | 1008.7 |
| 20260504193011 | 77 | 161 | 6.1 | 12.2 | 0.00 | 0.00 | 0.00 | 33 | 1008.7 |
| 20260504192505 | 77 | 162 | 5.2 | 13.9 | 0.00 | 0.00 | 0.00 | 33 | 1008.8 |
| 20260504192005 | 77 | 200 | 2.6 | 12.2 | 0.00 | 0.00 | 0.00 | 33 | 1008.8 |
| 20260504191504 | 77 | 218 | 3.5 | 10.4 | 0.00 | 0.00 | 0.00 | 33 | 1009.0 |
| 20260504191005 | 78 | 185 | 9.6 | 15.6 | 0.00 | 0.00 | 0.00 | 32 | 1009.1 |
| 20260504190506 | 78 | 205 | 2.6 | 8.7 | 0.00 | 0.00 | 0.00 | 34 | 1009.2 |
| 20260504190010 | 77 | 265 | 1.7 | 6.1 | 0.00 | 0.00 | 0.00 | 35 | 1009.2 |
| 20260504185505 | 77 | 133 | 5.2 | 11.3 | 0.00 | 0.00 | 0.00 | 32 | 1009.2 |
| 20260504185005 | 77 | 123 | 4.3 | 10.4 | 0.00 | 0.00 | 0.00 | 32 | 1009.3 |
| 20260504184505 | 77 | 215 | 3.5 | 8.7 | 0.00 | 0.00 | 0.00 | 31 | 1009.4 |
| 20260504184005 | 77 | 140 | 6.1 | 12.2 | 0.00 | 0.00 | 0.00 | 31 | 1009.4 |
| 20260504183505 | 77 | 159 | 2.6 | 7.0 | 0.00 | 0.00 | 0.00 | 31 | 1009.5 |
| 20260504183010 | 76 | 135 | 1.7 | 6.1 | 0.00 | 0.00 | 0.00 | 32 | 1009.5 |
| 20260504182505 | 76 | 237 | 3.5 | 7.8 | 0.00 | 0.00 | 0.00 | 31 | 1009.7 |
| 20260504181505 | 76 | 129 | 8.7 | 12.2 | 0.00 | 0.00 | 0.00 | 31 | 1009.7 |
| 20260504181005 | 76 | 126 | 7.8 | 13.0 | 0.00 | 0.00 | 0.00 | 31 | 1009.7 |
| 20260504180504 | 77 | 185 | 3.5 | 11.3 | 0.00 | 0.00 | 0.00 | 31 | 1009.8 |
| 20260504180011 | 76 | 122 | 2.6 | 8.7 | 0.00 | 0.00 | 0.00 | 32 | 1009.8 |
| 20260504175006 | 76 | 276 | 2.6 | 7.0 | 0.00 | 0.00 | 0.00 | 32 | 1009.9 |
| 20260504174505 | 75 | 275 | 2.6 | 10.4 | 0.00 | 0.00 | 0.00 | 32 | 1010.0 |
| 20260504173504 | 74 | 150 | 4.3 | 7.0 | 0.00 | 0.00 | 0.00 | 33 | 1010.1 |
| 20260504173011 | 75 | 187 | 7.0 | 13.0 | 0.00 | 0.00 | 0.00 | 32 | 1010.1 |
| 20260504172505 | 75 | 173 | 6.1 | 12.2 | 0.00 | 0.00 | 0.00 | 31 | 1010.1 |
| 20260504172005 | 75 | 149 | 4.3 | 7.0 | 0.00 | 0.00 | 0.00 | 31 | 1010.1 |
| 20260504171505 | 75 | 140 | 7.8 | 12.2 | 0.00 | 0.00 | 0.00 | 30 | 1010.3 |
| 20260504171005 | 75 | 186 | 2.6 | 10.4 | 0.00 | 0.00 | 0.00 | 32 | 1010.3 |
| 20260504170505 | 74 | 135 | 3.5 | 8.7 | 0.00 | 0.00 | 0.00 | 33 | 1010.3 |
| 20260504151005 | 69 | 195 | 6.1 | 12.2 | 0.00 | 0.00 | 0.00 | 35 | 1011.9 |
| 20260504141005 | 65 | 161 | 4.3 | 10.4 | 0.00 | 0.00 | 0.00 | 46 | 1012.1 |
| 20260504140505 | 64 | 149 | 2.6 | 6.1 | 0.00 | 0.00 | 0.00 | 46 | 1012.1 |
| 20260504130504 | 58 | 219 | 4.3 | 7.8 | 0.00 | 0.00 | 0.00 | 56 | 1012.5 |
| 20260504110505 | 47 | 234 | 0.0 | 0.0 | 0.00 | 0.00 | 0.00 | 75 | 1013.0 |
| 20260504082005 | 46 | 239 | 0.0 | 0.0 | 0.00 | 0.00 | 0.00 | 73 | 1013.5 |
| 20260504081504 | 46 | 239 | 0.0 | 0.0 | 0.00 | 0.00 | 0.00 | 73 | 1013.5 |
| 20260504081004 | 46 | 239 | 0.0 | 0.0 | 0.00 | 0.00 | 0.00 | 73 | 1013.3 |
| 20260504050010 | 45 | 242 | 0.0 | 0.0 | 0.00 | 0.00 | 0.00 | 68 | 1013.6 |
| 20260504045505 | 45 | 242 | 0.0 | 0.9 | 0.00 | 0.00 | 0.00 | 68 | 1013.7 |
| 20260504045005 | 45 | 242 | 0.0 | 0.0 | 0.00 | 0.00 | 0.00 | 68 | 1013.7 |
| 20260504044505 | 46 | 242 | 0.0 | 0.0 | 0.00 | 0.00 | 0.00 | 68 | 1013.7 |
| 20260504044005 | 46 | 242 | 0.0 | 0.0 | 0.00 | 0.00 | 0.00 | 68 | 1013.7 |
| 20260504043506 | 46 | 242 | 0.0 | 0.0 | 0.00 | 0.00 | 0.00 | 67 | 1013.6 |
| 20260504043010 | 46 | 242 | 0.0 | 0.0 | 0.00 | 0.00 | 0.00 | 67 | 1013.5 |
| 20260504042505 | 46 | 242 | 0.0 | 1.7 | 0.00 | 0.00 | 0.00 | 67 | 1013.5 |
| 20260504042005 | 46 | 242 | 0.0 | 1.7 | 0.00 | 0.00 | 0.00 | 67 | 1013.5 |
| 20260504041504 | 46 | 242 | 0.9 | 1.7 | 0.00 | 0.00 | 0.00 | 67 | 1013.5 |
| 20260504041005 | 46 | 242 | 0.0 | 0.9 | 0.00 | 0.00 | 0.00 | 67 | 1013.4 |